カタログに戻る

STARLINK-11137

運用中通信VLEO
NORAD 60050·PAYLOAD·🇺🇸 United States

打ち上げ Jun 8, 2024 から Vandenberg Space Force Base

Loading…

次のパス (今後24時間)

TLE

最新Source: CelesTrak SupGP

元期: Sep 14, 2026, 21:33 UTC

1 60050C 24112N   26257.89840278  .00073437  00000+0  60483-3 0  2573
2 60050  53.1573  53.2428 0001070  71.4553 244.1309 15.69676602    16

AllMySatでSTARLINK-11137をリアルタイム追跡

Download on the App Store